Weather History for KFCM - January, 2012

Change the Weather History Date:

Saturday, January 21, 2012

  Actual Average Record
Temperature  
Mean Temperature 10 °F -  
Max Temperature 23 °F 21 °F 30 °F (1999)
Min Temperature -2 °F 7 °F -20 °F (2011)
Degree Days  
Heating Degree Days 56    
Moisture  
Dew Point 5 °F    
Average Humidity 77    
Maximum Humidity 87    
Minimum Humidity 62    
Precipitation  
Precipitation 0.00 in - - ()
Sea Level Pressure  
Sea Level Pressure 30.10 in    
Wind  
Wind Speed 7 mph (SSE)    
Max Wind Speed 20 mph    
Max Gust Speed 24 mph    
Visibility 9 miles    
Events      
Averages and records for this station are not official NWS values.
T = Trace of Precipitation, MM = Missing Value Source: NWS Daily Summary

Daily Weather History Graph

Daily Weather History Graph

Search for Another Location

Airport or City:

Trip Planner

Search our weather history database for the weather conditions in past years. The results will help you decide how hot, cold, wet, or windy it might be!

Date:

Astronomy

Jan. 21, 2012 Rise Set
Actual Time 7:44 AM CST 5:06 PM CST
Civil Twilight 7:12 AM CST 5:38 PM CST
Nautical Twilight 6:36 AM CST 6:14 PM CST
Astronomical Twilight 6:01 AM CST 6:49 PM CST
Moon 6:17 AM CST (1/21) 3:41 PM CST (1/21)
Length of Visible Light 10h 26m
Length of Day
9h 21m
Waning Crescent, 3% of the Moon is Illuminated
Jan 21
Waning Crescent
Jan 23
New
Jan 30
First Quarter
Feb 7
Full
Feb 14
Last Quarter

Hourly Weather History & Observations

Time (CST) Temp. Windchill Dew Point Humidity Pressure Visibility Wind Dir Wind Speed Gust Speed Precip Events Conditions
12:53 AM 1.9 °F - -2.0 °F 83% 30.28 in 10.0 mi Calm Calm - N/A   Clear
2:53 AM -0.9 °F - -5.1 °F 83% 30.29 in 9.0 mi Calm Calm - N/A   Clear
3:53 AM -2.0 °F - -5.1 °F 87% 30.27 in 9.0 mi Calm Calm - N/A   Clear
4:53 AM -2.0 °F - -5.1 °F 87% 30.25 in 7.0 mi Calm Calm - N/A   Clear
5:53 AM -0.9 °F - -7.1 °F 75% 30.25 in 8.0 mi Calm Calm - N/A   Clear
7:53 AM -2.9 °F -11.2 °F -7.1 °F 82% 30.23 in 7.0 mi SSE 3.5 mph - N/A   Clear
8:53 AM 1.0 °F -6.7 °F -2.9 °F 83% 30.23 in 7.0 mi SE 3.5 mph - N/A   Clear
9:53 AM 8.1 °F -2.0 °F 3.0 °F 80% 30.23 in 10.0 mi SE 5.8 mph - N/A   Clear
10:53 AM 12.0 °F 0.5 °F 5.0 °F 73% 30.22 in 10.0 mi SSE 8.1 mph - N/A   Clear
11:53 AM 16.0 °F 2.3 °F 5.0 °F 62% 30.19 in 10.0 mi South 12.7 mph - N/A   Clear
12:53 PM 17.1 °F 2.0 °F 6.1 °F 62% 30.13 in 10.0 mi SSE 16.1 mph - N/A   Mostly Cloudy
1:53 PM 16.0 °F 1.7 °F 5.0 °F 62% 30.10 in 10.0 mi South 13.8 mph - N/A   Overcast
2:53 PM 16.0 °F 1.1 °F 5.0 °F 62% 30.08 in 10.0 mi SE 15.0 mph - N/A   Mostly Cloudy
3:53 PM 16.0 °F 0.1 °F 8.1 °F 71% 30.06 in 10.0 mi SSE 17.3 mph 24.2 mph N/A   Overcast
4:53 PM 16.0 °F 1.7 °F 10.0 °F 77% 30.02 in 10.0 mi SSE 13.8 mph - N/A   Overcast
5:53 PM 19.0 °F 3.6 °F 12.9 °F 77% 29.99 in 10.0 mi SSE 18.4 mph - N/A   Overcast
6:53 PM 19.9 °F 4.8 °F 14.0 °F 78% 29.95 in 10.0 mi SSE 18.4 mph 24.2 mph N/A   Overcast
7:53 PM 19.9 °F 5.2 °F 15.1 °F 81% 29.91 in 10.0 mi SE 17.3 mph - N/A   Overcast
8:53 PM 19.9 °F 5.7 °F 15.1 °F 81% 29.88 in 9.0 mi SE 16.1 mph - N/A   Overcast
10:53 PM 21.9 °F 6.9 °F 17.1 °F 82% 29.83 in 8.0 mi South 19.6 mph - N/A   Overcast
11:53 PM 23.0 °F 8.7 °F 18.0 °F 81% 29.81 in 9.0 mi SSE 18.4 mph - N/A   Overcast